Weather Roundup
Issued by NWS Chicago, IL

Home | Current Version | Previous Version | Text Only | Print | Product List | Glossary Off
Versions: 1 2 3 4 5 6 7 8 9 10 11 12 13 14 15 16 17 18 19 20 21 22 23 24 25 26 27 28 29 30 31 32 33 34 35 36 37 38 39 40 41 42 43 44 45 46 47 48 49 50

000
NZUS59 KLOT 030558
HRRLOT

CHICAGO AREA WEATHER ROUNDUP
NATIONAL WEATHER SERVICE CHICAGO/ROMEOVILLE IL
1200 AM CST TUE MAR 03 2015

NOTE: "FAIR" INDICATES FEW OR NO CLOUDS BELOW 12,000 FEET WITH NO
SIGNIFICANT WEATHER AND/OR OBSTRUCTIONS TO VISIBILITY.

* THESE STATIONS ARE NOT UNDER NWS QUALITY CONTROL. THEY ALSO MAY NOT
  REPORT WEATHER SUCH AS PRECIPITATION OR FOG.

ILZ005-006-012>014-019>023-030700-
NORTHEAST ILLINOIS

CITY           SKY/WX    TMP DP  RH WIND       PRES   REMARKS
OHARE          CLOUDY    26  15  63 S9        30.22F WCI  17
6HR MIN TEMP:  25; 6HR MAX TEMP:  28;

MIDWAY         NOT AVBL
AURORA         CLOUDY    25  16  68 SE8       30.22F WCI  16
6HR MIN TEMP:  24; 6HR MAX TEMP:  27;

WAUKEGAN       NOT AVBL
DUPAGE AIRPORT CLOUDY    25  14  63 S9        30.21F WCI  15
6HR MIN TEMP:  24; 6HR MAX TEMP:  27;

WHEELING       CLOUDY    26  14  60 SE7       30.24F WCI  18
6HR MIN TEMP:  26; 6HR MAX TEMP:  29;

NORTHERLY IS     N/A     27  16  63 SE9         N/A  WCI  18
$$

WIZ051-052-058>065-066-070>072-030700-
SOUTHEAST WISCONSIN

CITY           SKY/WX    TMP DP  RH WIND       PRES   REMARKS
MILWAUKEE      CLOUDY    26  16  65 SW8       30.23F WCI  18
6HR MIN TEMP:  25; 6HR MAX TEMP:  26;

KENOSHA*       CLOUDY    26  16  65 S8        30.21F WCI  18
$$

INZ001>003-010>013-019-020-030700-
NORTHWEST INDIANA

CITY           SKY/WX    TMP DP  RH WIND       PRES   REMARKS
GARY*          NOT AVBL
MICHIGAN CITY* NOT AVBL
RENSSELAER*    NOT AVBL
$$

LMZ740>746-030700-
SOUTHERN LAKE MICHIGAN

STATION/POSITION TIME  SKY/WX   TEMP WIND        PRES    VSBY
                                AIR  DIR/SP/G
                 (UTC)          (F)  (DEG/KT/KT) (MB)    (MI)
HARRISON CRIB    0500            27  170/ 10/ 12   N/A
BURNHAM HARBOR   0500            27  150/  4/  8   N/A
CALUMET HARBOR   0500                            1023.3F
BURNS HARBOR     NOT AVBL
MICHIGAN CITY    0500            26  140/  7/  9   N/A
$$

ABBREVIATIONS USED IN REMARKS
   TC - TEMPERATURE IN CELSIUS
  WCI - WIND CHILL INDEX
   HX - HEAT INDEX
  VSB - VISIBILITY
$$



USA.gov is the U.S. government's official web portal to all federal, state and local government web resources and services.